Location: Wildcat Hills Observatory
(41.6350°N, 103.6812°W)
Time: 13:54:22
(UTC-06:00)

S3M - Pass Details

Date: 23 June 2018
Orbit: 949 x 1004 km, 83.0° (Epoch: 15 July)

Event Time Altitude Azimuth Distance (km) Brightness Sun altitude
Exits shadow 22:00:15 10° 176° (S) 2,789 5.9 -13.2°
Reaches altitude 10° 22:00:20 10° 176° (S) 2,754 5.9 -13.2°
Maximum altitude 22:06:38 71° 94° (E) 1,060 4.0 -13.9°
Drops below altitude 10° 22:13:00 10° 12° (NNE) 2,787 6.9 -14.7°
Sets 22:15:34 0° 10° (N) 3,741 7.7 -15.0°
